Time,TemperatureF,DewpointF,PressureIn,WindDirection,WindDirectionDegrees,WindSpeedMPH,WindSpeedGustMPH,Humidity,HourlyPrecipIn,Conditions,Clouds,dailyrainin,SoftwareType,DateUTC
2013-03-07 00:12:00,22.0,20.0,30.13,WSW,252,0.0,-999.0,92,-99.99,,,-99.99,,2013-03-07 05:12:00,
2013-03-07 00:22:00,22.0,20.0,30.13,WSW,246,0.0,-999.0,92,-99.99,,,-99.99,,2013-03-07 05:22:00,
2013-03-07 00:32:00,22.0,20.0,30.13,West,261,0.0,-999.0,92,-99.99,,,-99.99,,2013-03-07 05:32:00,
2013-03-07 00:42:00,22.0,20.0,30.13,West,261,0.0,-999.0,92,-99.99,,,-99.99,,2013-03-07 05:42:00,
2013-03-07 00:52:00,22.0,20.0,30.13,SW,233,0.0,-999.0,92,-99.99,,,-99.99,,2013-03-07 05:52:00,
2013-03-07 01:02:00,22.0,20.0,30.13,NW,323,0.0,-999.0,92,-99.99,,,-99.99,,2013-03-07 06:02:00,
2013-03-07 01:11:00,22.0,20.0,30.13,NW,323,0.0,-999.0,92,-99.99,,,-99.99,,2013-03-07 06:11:00,
2013-03-07 01:21:00,22.0,20.0,30.14,West,266,0.0,-999.0,92,-99.99,,,-99.99,,2013-03-07 06:21:00,
2013-03-07 01:32:00,22.0,20.0,30.14,NW,315,0.0,-999.0,92,-99.99,,,-99.99,,2013-03-07 06:32:00,
2013-03-07 01:42:00,22.0,20.0,30.14,NW,315,0.0,-999.0,92,-99.99,,,-99.99,,2013-03-07 06:42:00,
2013-03-07 01:52:00,22.0,20.0,30.14,WSW,238,0.0,-999.0,92,-99.99,,,-99.99,,2013-03-07 06:52:00,
2013-03-07 02:01:00,22.0,20.0,30.14,NNW,327,0.0,-999.0,92,-99.99,,,-99.99,,2013-03-07 07:01:00,
2013-03-07 02:11:00,22.0,20.0,30.14,NNW,327,0.0,-999.0,92,-99.99,,,-99.99,,2013-03-07 07:11:00,
2013-03-07 02:22:00,22.0,20.0,30.14,WSW,257,0.0,-999.0,92,-99.99,,,-99.99,,2013-03-07 07:22:00,
2013-03-07 02:32:00,22.0,20.0,30.15,WSW,257,0.0,-999.0,92,-99.99,,,-99.99,,2013-03-07 07:32:00,
2013-03-07 02:43:00,22.0,20.0,30.15,WSW,257,0.0,-999.0,92,-99.99,,,-99.99,,2013-03-07 07:43:00,
2013-03-07 02:52:00,22.0,20.0,30.14,WSW,244,0.0,-999.0,92,-99.99,,,-99.99,,2013-03-07 07:52:00,
2013-03-07 03:03:00,22.0,20.0,30.14,SW,232,0.0,-999.0,92,-99.99,,,-99.99,,2013-03-07 08:03:00,
2013-03-07 03:12:00,22.0,20.0,30.14,SW,232,0.0,-999.0,92,-99.99,,,-99.99,,2013-03-07 08:12:00,
2013-03-07 03:23:00,21.0,19.0,30.12,WNW,284,0.0,-999.0,92,-99.99,,,-99.99,,2013-03-07 08:23:00,
2013-03-07 03:33:00,21.0,19.0,30.13,WNW,298,0.0,-999.0,92,-99.99,,,-99.99,,2013-03-07 08:33:00,
2013-03-07 03:44:00,21.0,19.0,30.13,WNW,298,0.0,-999.0,92,-99.99,,,-99.99,,2013-03-07 08:44:00,
2013-03-07 03:53:00,21.0,19.0,30.13,NNW,334,0.0,-999.0,92,-99.99,,,-99.99,,2013-03-07 08:53:00,
2013-03-07 04:03:00,21.0,19.0,30.13,WSW,241,0.0,-999.0,92,-99.99,,,-99.99,,2013-03-07 09:03:00,
2013-03-07 04:13:00,21.0,19.0,30.13,WSW,241,0.0,-999.0,92,-99.99,,,-99.99,,2013-03-07 09:13:00,
2013-03-07 04:23:00,21.0,19.0,30.14,West,271,0.0,-999.0,92,-99.99,,,-99.99,,2013-03-07 09:23:00,
2013-03-07 04:33:00,22.0,20.0,30.14,North,350,0.0,-999.0,92,-99.99,,,-99.99,,2013-03-07 09:33:00,
2013-03-07 04:43:00,22.0,20.0,30.14,North,350,0.0,-999.0,92,-99.99,,,-99.99,,2013-03-07 09:43:00,
2013-03-07 04:52:00,22.0,20.0,30.14,West,270,0.0,-999.0,92,-99.99,,,-99.99,,2013-03-07 09:52:00,
2013-03-07 05:13:00,21.0,19.0,30.14,WSW,244,0.0,-999.0,92,-99.99,,,-99.99,,2013-03-07 10:13:00,
2013-03-07 05:23:00,21.0,19.0,30.14,WSW,243,0.0,-999.0,92,-99.99,,,-99.99,,2013-03-07 10:23:00,
2013-03-07 05:33:00,21.0,19.0,30.15,West,259,0.0,-999.0,92,-99.99,,,-99.99,,2013-03-07 10:33:00,
2013-03-07 05:43:00,21.0,19.0,30.15,West,259,0.0,-999.0,92,-99.99,,,-99.99,,2013-03-07 10:43:00,
2013-03-07 05:52:00,21.0,19.0,30.16,West,273,0.0,-999.0,92,-99.99,,,-99.99,,2013-03-07 10:52:00,
2013-03-07 06:03:00,21.0,19.0,30.16,WSW,237,0.0,-999.0,92,-99.99,,,-99.99,,2013-03-07 11:03:00,
2013-03-07 06:12:00,21.0,19.0,30.16,WSW,237,0.0,-999.0,92,-99.99,,,-99.99,,2013-03-07 11:12:00,
2013-03-07 06:23:00,21.0,19.0,30.16,WSW,248,0.0,-999.0,92,-99.99,,,-99.99,,2013-03-07 11:23:00,
2013-03-07 06:33:00,21.0,19.0,30.16,WSW,248,0.0,-999.0,92,-99.99,,,-99.99,,2013-03-07 11:33:00,
2013-03-07 06:43:00,21.0,19.0,30.16,WSW,248,0.0,-999.0,92,-99.99,,,-99.99,,2013-03-07 11:43:00,
2013-03-07 06:53:00,21.0,19.0,30.17,WSW,240,0.0,-999.0,92,-99.99,,,-99.99,,2013-03-07 11:53:00,
2013-03-07 07:03:00,21.0,19.0,30.17,WSW,250,0.0,-999.0,92,-99.99,,,-99.99,,2013-03-07 12:03:00,
2013-03-07 07:12:00,21.0,19.0,30.17,WSW,250,0.0,-999.0,92,-99.99,,,-99.99,,2013-03-07 12:12:00,
2013-03-07 07:23:00,21.0,19.0,30.18,WSW,250,0.0,-999.0,92,-99.99,,,-99.99,,2013-03-07 12:23:00,
2013-03-07 07:33:00,21.0,19.0,30.19,WSW,238,0.0,-999.0,92,-99.99,,,-99.99,,2013-03-07 12:33:00,
2013-03-07 07:43:00,21.0,19.0,30.19,WSW,238,0.0,-999.0,92,-99.99,,,-99.99,,2013-03-07 12:43:00,
2013-03-07 07:52:00,21.0,19.0,30.20,West,273,0.0,-999.0,92,-99.99,,,-99.99,,2013-03-07 12:52:00,
2013-03-07 08:03:00,21.0,19.0,30.22,WSW,245,0.0,-999.0,92,-99.99,,,-99.99,,2013-03-07 13:03:00,
2013-03-07 08:13:00,21.0,19.0,30.22,WSW,245,0.0,-999.0,92,-99.99,,,-99.99,,2013-03-07 13:13:00,
2013-03-07 08:23:00,21.0,19.0,30.22,WNW,297,0.0,-999.0,92,-99.99,,,-99.99,,2013-03-07 13:23:00,
2013-03-07 08:32:00,21.0,19.0,30.22,West,263,0.0,-999.0,92,-99.99,,,-99.99,,2013-03-07 13:32:00,
2013-03-07 08:42:00,21.0,19.0,30.22,West,263,0.0,-999.0,92,-99.99,,,-99.99,,2013-03-07 13:42:00,
2013-03-07 08:53:00,21.0,19.0,30.22,SW,223,0.0,-999.0,92,-99.99,,,-99.99,,2013-03-07 13:53:00,
2013-03-07 09:02:00,21.0,19.0,30.24,West,281,0.0,-999.0,93,-99.99,,,-99.99,,2013-03-07 14:02:00,
2013-03-07 09:12:00,21.0,19.0,30.24,West,281,0.0,-999.0,93,-99.99,,,-99.99,,2013-03-07 14:12:00,
2013-03-07 09:23:00,20.0,18.0,30.24,West,263,0.0,-999.0,93,-99.99,,,-99.99,,2013-03-07 14:23:00,
2013-03-07 09:33:00,20.0,18.0,30.24,West,262,0.0,-999.0,93,-99.99,,,-99.99,,2013-03-07 14:33:00,
2013-03-07 09:43:00,20.0,18.0,30.24,West,262,0.0,-999.0,93,-99.99,,,-99.99,,2013-03-07 14:43:00,
2013-03-07 09:53:00,20.0,18.0,30.24,WSW,254,0.0,-999.0,93,-99.99,,,-99.99,,2013-03-07 14:53:00,
2013-03-07 10:03:00,20.0,18.0,30.25,WSW,250,0.0,-999.0,93,-99.99,,,-99.99,,2013-03-07 15:03:00,
2013-03-07 10:12:00,20.0,18.0,30.25,WSW,250,0.0,-999.0,93,-99.99,,,-99.99,,2013-03-07 15:12:00,
2013-03-07 10:23:00,20.0,18.0,30.25,WSW,252,0.0,-999.0,93,-99.99,,,-99.99,,2013-03-07 15:23:00,
2013-03-07 10:33:00,20.0,18.0,30.25,WNW,291,0.0,-999.0,93,-99.99,,,-99.99,,2013-03-07 15:33:00,
2013-03-07 10:42:00,20.0,18.0,30.25,WNW,291,0.0,-999.0,93,-99.99,,,-99.99,,2013-03-07 15:42:00,
2013-03-07 10:52:00,20.0,18.0,30.26,WSW,257,0.0,-999.0,93,-99.99,,,-99.99,,2013-03-07 15:52:00,
2013-03-07 11:02:00,20.0,18.0,30.26,WSW,254,0.0,-999.0,93,-99.99,,,-99.99,,2013-03-07 16:02:00,
2013-03-07 11:23:00,20.0,18.0,30.26,West,260,0.0,-999.0,93,-99.99,,,-99.99,,2013-03-07 16:23:00,
2013-03-07 11:33:00,20.0,18.0,30.26,WNW,298,0.0,-999.0,93,-99.99,,,-99.99,,2013-03-07 16:33:00,
2013-03-07 11:43:00,20.0,18.0,30.26,WNW,298,0.0,-999.0,93,-99.99,,,-99.99,,2013-03-07 16:43:00,
2013-03-07 11:52:00,21.0,19.0,30.26,West,274,0.0,-999.0,92,-99.99,,,-99.99,,2013-03-07 16:52:00,
2013-03-07 12:03:00,21.0,19.0,30.26,West,262,0.0,-999.0,92,-99.99,,,-99.99,,2013-03-07 17:03:00,
2013-03-07 12:12:00,21.0,19.0,30.26,West,262,0.0,-999.0,92,-99.99,,,-99.99,,2013-03-07 17:12:00,
2013-03-07 12:23:00,21.0,19.0,30.25,West,263,0.0,-999.0,92,-99.99,,,-99.99,,2013-03-07 17:23:00,
2013-03-07 12:33:00,22.0,20.0,30.25,WNW,293,0.0,-999.0,92,-99.99,,,-99.99,,2013-03-07 17:33:00,
2013-03-07 12:43:00,22.0,20.0,30.25,WNW,293,0.0,-999.0,92,-99.99,,,-99.99,,2013-03-07 17:43:00,
2013-03-07 12:53:00,22.0,20.0,30.26,NNW,333,0.0,-999.0,92,-99.99,,,-99.99,,2013-03-07 17:53:00,
2013-03-07 13:04:00,22.0,20.0,30.25,West,276,0.0,-999.0,92,-99.99,,,-99.99,,2013-03-07 18:04:00,
2013-03-07 13:13:00,22.0,20.0,30.25,West,276,0.0,-999.0,92,-99.99,,,-99.99,,2013-03-07 18:13:00,
2013-03-07 13:22:00,22.0,20.0,30.24,West,275,0.0,-999.0,92,-99.99,,,-99.99,,2013-03-07 18:22:00,
2013-03-07 13:32:00,23.0,21.0,30.25,West,276,0.0,-999.0,92,-99.99,,,-99.99,,2013-03-07 18:32:00,
2013-03-07 13:42:00,23.0,21.0,30.25,West,276,0.0,-999.0,92,-99.99,,,-99.99,,2013-03-07 18:42:00,
2013-03-07 13:52:00,23.0,21.0,30.24,NW,307,0.0,-999.0,92,-99.99,,,-99.99,,2013-03-07 18:52:00,
2013-03-07 14:03:00,23.0,21.0,30.24,West,274,0.0,-999.0,91,-99.99,,,-99.99,,2013-03-07 19:03:00,
2013-03-07 14:12:00,23.0,21.0,30.24,West,274,0.0,-999.0,91,-99.99,,,-99.99,,2013-03-07 19:12:00,
2013-03-07 14:23:00,23.0,21.0,30.23,WSW,243,0.0,-999.0,91,-99.99,,,-99.99,,2013-03-07 19:23:00,
2013-03-07 14:35:00,23.0,21.0,30.23,West,279,0.0,-999.0,92,-99.99,,,-99.99,,2013-03-07 19:35:00,
2013-03-07 14:43:00,23.0,21.0,30.23,West,279,0.0,-999.0,92,-99.99,,,-99.99,,2013-03-07 19:43:00,
2013-03-07 14:52:00,23.0,21.0,30.23,SW,228,0.0,-999.0,92,-99.99,,,-99.99,,2013-03-07 19:52:00,
2013-03-07 15:02:00,23.0,21.0,30.23,WNW,286,0.0,-999.0,92,-99.99,,,-99.99,,2013-03-07 20:02:00,
2013-03-07 15:13:00,23.0,21.0,30.23,WNW,286,0.0,-999.0,92,-99.99,,,-99.99,,2013-03-07 20:13:00,
2013-03-07 15:22:00,23.0,21.0,30.23,West,264,0.0,-999.0,92,-99.99,,,-99.99,,2013-03-07 20:22:00,
2013-03-07 15:34:00,23.0,21.0,30.24,West,272,0.0,-999.0,92,-99.99,,,-99.99,,2013-03-07 20:34:00,
2013-03-07 15:43:00,23.0,21.0,30.24,West,272,0.0,-999.0,92,-99.99,,,-99.99,,2013-03-07 20:43:00,
2013-03-07 15:53:00,22.0,20.0,30.24,West,281,0.0,-999.0,92,-99.99,,,-99.99,,2013-03-07 20:53:00,
2013-03-07 16:03:00,22.0,20.0,30.24,WSW,239,0.0,-999.0,92,-99.99,,,-99.99,,2013-03-07 21:03:00,
2013-03-07 16:12:00,22.0,20.0,30.24,WSW,239,0.0,-999.0,92,-99.99,,,-99.99,,2013-03-07 21:12:00,
2013-03-07 16:23:00,22.0,20.0,30.24,West,271,0.0,-999.0,92,-99.99,,,-99.99,,2013-03-07 21:23:00,
2013-03-07 16:33:00,22.0,20.0,30.24,NNW,328,0.0,-999.0,92,-99.99,,,-99.99,,2013-03-07 21:33:00,
2013-03-07 16:43:00,22.0,20.0,30.24,NNW,328,0.0,-999.0,92,-99.99,,,-99.99,,2013-03-07 21:43:00,
2013-03-07 16:52:00,22.0,20.0,30.24,WSW,256,0.0,-999.0,92,-99.99,,,-99.99,,2013-03-07 21:52:00,
2013-03-07 17:02:00,22.0,20.0,30.24,NNW,344,0.0,-999.0,92,-99.99,,,-99.99,,2013-03-07 22:02:00,
2013-03-07 17:12:00,22.0,20.0,30.24,NNW,344,0.0,-999.0,92,-99.99,,,-99.99,,2013-03-07 22:12:00,
2013-03-07 17:23:00,22.0,20.0,30.24,WSW,249,0.0,-999.0,92,-99.99,,,-99.99,,2013-03-07 22:23:00,
2013-03-07 17:33:00,22.0,20.0,30.24,West,261,0.0,-999.0,92,-99.99,,,-99.99,,2013-03-07 22:33:00,
2013-03-07 17:43:00,22.0,20.0,30.24,West,261,0.0,-999.0,92,-99.99,,,-99.99,,2013-03-07 22:43:00,
2013-03-07 18:03:00,22.0,20.0,30.25,West,276,0.0,-999.0,92,-99.99,,,-99.99,,2013-03-07 23:03:00,
2013-03-07 18:13:00,22.0,20.0,30.25,West,276,0.0,-999.0,92,-99.99,,,-99.99,,2013-03-07 23:13:00,
2013-03-07 18:22:00,22.0,20.0,30.26,WNW,283,0.0,-999.0,92,-99.99,,,-99.99,,2013-03-07 23:22:00,
2013-03-07 18:34:00,22.0,20.0,30.26,West,268,0.0,-999.0,92,-99.99,,,-99.99,,2013-03-07 23:34:00,
2013-03-07 18:43:00,22.0,20.0,30.26,West,268,0.0,-999.0,92,-99.99,,,-99.99,,2013-03-07 23:43:00,
2013-03-07 18:53:00,22.0,20.0,30.26,NW,314,0.0,-999.0,92,-99.99,,,-99.99,,2013-03-07 23:53:00,
2013-03-07 19:04:00,21.0,19.0,30.26,West,261,0.0,-999.0,92,-99.99,,,-99.99,,2013-03-08 00:04:00,
2013-03-07 19:13:00,21.0,19.0,30.26,West,261,0.0,-999.0,92,-99.99,,,-99.99,,2013-03-08 00:13:00,
2013-03-07 19:23:00,21.0,19.0,30.27,West,277,0.0,-999.0,92,-99.99,,,-99.99,,2013-03-08 00:23:00,
2013-03-07 19:34:00,21.0,19.0,30.27,NW,315,0.0,-999.0,92,-99.99,,,-99.99,,2013-03-08 00:34:00,
2013-03-07 19:44:00,21.0,19.0,30.27,NW,315,0.0,-999.0,92,-99.99,,,-99.99,,2013-03-08 00:44:00,
2013-03-07 19:53:00,21.0,19.0,30.27,WSW,248,0.0,-999.0,92,-99.99,,,-99.99,,2013-03-08 00:53:00,
2013-03-07 20:02:00,21.0,19.0,30.27,West,264,0.0,-999.0,92,-99.99,,,-99.99,,2013-03-08 01:02:00,
2013-03-07 20:12:00,21.0,19.0,30.27,West,264,0.0,-999.0,92,-99.99,,,-99.99,,2013-03-08 01:12:00,
2013-03-07 20:22:00,21.0,19.0,30.27,WNW,295,0.0,-999.0,92,-99.99,,,-99.99,,2013-03-08 01:22:00,
2013-03-07 20:42:00,21.0,19.0,30.27,NNW,329,0.0,-999.0,92,-99.99,,,-99.99,,2013-03-08 01:42:00,
2013-03-07 20:52:00,21.0,19.0,30.27,WSW,245,0.0,-999.0,92,-99.99,,,-99.99,,2013-03-08 01:52:00,
2013-03-07 21:02:00,21.0,19.0,30.27,NW,309,0.0,-999.0,92,-99.99,,,-99.99,,2013-03-08 02:02:00,
2013-03-07 21:12:00,21.0,19.0,30.27,West,260,0.0,-999.0,92,-99.99,,,-99.99,,2013-03-08 02:12:00,
2013-03-07 21:22:00,21.0,19.0,30.27,West,260,0.0,-999.0,92,-99.99,,,-99.99,,2013-03-08 02:22:00,
2013-03-07 21:32:00,21.0,19.0,30.27,WNW,299,0.0,-999.0,92,-99.99,,,-99.99,,2013-03-08 02:32:00,
2013-03-07 21:42:00,21.0,19.0,30.27,WNW,299,0.0,-999.0,92,-99.99,,,-99.99,,2013-03-08 02:42:00,
2013-03-07 21:52:00,21.0,19.0,30.27,SW,236,0.0,-999.0,92,-99.99,,,-99.99,,2013-03-08 02:52:00,
2013-03-07 22:02:00,21.0,19.0,30.27,West,276,0.0,-999.0,92,-99.99,,,-99.99,,2013-03-08 03:02:00,
2013-03-07 22:12:00,21.0,19.0,30.27,West,276,0.0,-999.0,92,-99.99,,,-99.99,,2013-03-08 03:12:00,
2013-03-07 22:22:00,21.0,19.0,30.27,WNW,302,0.0,-999.0,92,-99.99,,,-99.99,,2013-03-08 03:22:00,
2013-03-07 22:33:00,21.0,19.0,30.27,WSW,257,0.0,-999.0,93,-99.99,,,-99.99,,2013-03-08 03:33:00,
2013-03-07 22:43:00,21.0,19.0,30.27,WSW,257,0.0,-999.0,93,-99.99,,,-99.99,,2013-03-08 03:43:00,
2013-03-07 22:52:00,21.0,19.0,30.27,West,272,0.0,-999.0,93,-99.99,,,-99.99,,2013-03-08 03:52:00,
2013-03-07 23:02:00,21.0,19.0,30.26,West,265,0.0,-999.0,93,-99.99,,,-99.99,,2013-03-08 04:02:00,
2013-03-07 23:12:00,21.0,19.0,30.26,West,265,0.0,-999.0,93,-99.99,,,-99.99,,2013-03-08 04:12:00,
2013-03-07 23:22:00,21.0,19.0,30.26,West,265,0.0,-999.0,93,-99.99,,,-99.99,,2013-03-08 04:22:00,
2013-03-07 23:32:00,21.0,19.0,30.26,WSW,258,0.0,-999.0,93,-99.99,,,-99.99,,2013-03-08 04:32:00,
2013-03-07 23:42:00,21.0,19.0,30.26,WSW,258,0.0,-999.0,93,-99.99,,,-99.99,,2013-03-08 04:42:00,
2013-03-07 23:52:00,21.0,19.0,30.26,WSW,250,0.0,-999.0,93,-99.99,,,-99.99,,2013-03-08 04:52:00,